Temp
54 53 54 56 59 58 54 47 40 52 53 40 40 36 41 46 42 44 41 41 39 38 40 38 42 42 49 56 48 40 43 39 34 36 45 51 50 48 47 40 40 43 42 40
53 54 54 55 58 57 50 44 45 52 51 35 36 41 42 43 40 40 39 39 41 43 40 37 45 48 56 56 50 44 45 39 33 34 41 48 44 49 50 50 48 42 38 40
53 54 54 55 57 57 51 44 40 44 45 45 42 39 40 40 44 41 42 41 43 41 40 47 46 48 54 55 55 52 50 43 37 34 40 45 44 46 50 47 40 42 43 44
53 52 53 53 56 56 50 44 43 47 37 39 41 43 42 39 36 42 43 39 40 41 40 43 47 50 52 54 54 52 46 42 45 48 49 49 49 49 49 46 48 42 47 50
53 52 52 52 56 55 48 41 42 47 47 46 42 41 40 40 41 40 39 39 41 45 42 48 46 50 50 47 52 49 49 42 48 48 51 52 48 50 50 50 51 50 50 50
52 52 52 52 54 54 48 47 49 48 47 46 43 43 43 43 45 44 46 43 44 42 48 56 57 57 57 55 49 46 44 44 44 38 48 47 40 48 49 50 53 52 47 54
52 52 52 53 55 55 52 49 48 43 39 45 47 51 50 46 45 43 45 47 45 52 59 57 58 56 55 56 53 54 46 43 44 37 41 28 46 52 55 54 56 56 57 58
52 52 51 52 53 55 52 49 48 45 40 46 46 51 46 44 44 43 46 48 54 57 51 44 40 42 44 45 46 49 51 47 38 34 36 45 48 50 49 49 51 57 55 58
52 51 51 52 55 55 52 49 51 46 42 42 52 47 45 41 41 42 44 50 52 52 47 43 33 33 38 36 40 47 48 50 43 35 32 30 44 51 57 55 41 52 57 56
52 51 51 52 52 55 52 50 52 47 42 49 50 45 44 46 43 39 42 46 47 49 44 39 36 37 42 35 36 36 40 41 37 38 34 39 49 51 54 39 42 52 55 55
52 51 51 52 53 55 53 49 51 48 45 48 51 50 46 47 45 42 43 44 45 43 42 41 42 39 40 40 42 40 38 35 34 37 34 31 52 50 45 48 50 52 52 52
52 51 51 52 53 55 54 48 50 51 46 48 52 54 55 53 50 45 42 43 44 46 41 41 44 42 42 42 37 49 39 43 38 40 41 50 51 48 51 54 52 51 49 49
52 51 51 53 53 55 54 49 49 48 46 48 48 49 55 56 54 53 44 43 47 46 45 44 43 41 44 39 40 45 47 51 45 44 47 49 51 49 50 53 52 51 51 50
52 52 51 52 52 55 53 49 50 50 48 44 46 56 51 56 54 52 50 48 50 47 47 44 43 42 45 43 44 45 46 48 45 44 45 47 47 49 51 50 50 50 50 50
51 51 51 52 52 55 53 51 50 51 48 44 45 52 53 55 55 52 51 48 50 48 44 44 42 44 44 43 44 43 47 47 45 44 51 50 47 51 51 49 48 48 49 46
50 50 51 52 52 54 51 46 50 51 51 47 39 50 49 51 54 52 52 51 50 49 47 45 46 47 44 38 39 51 51 52 52 50 51 51 50 50 51 49 48 47 46 46
49 50 50 51 53 52 47 45 48 52 51 45 38 40 47 50 50 49 49 51 47 46 45 44 44 43 44 42 39 49 50 50 50 52 51 46 47 46 49 48 48 48 45 44
49 50 51 53 52 51 47 49 51 51 46 44 34 37 41 48 44 42 46 45 46 44 43 44 43 42 43 37 46 49 49 48 48 46 48 49 48 46 43 43 43 41 40 40
50 50 52 50 48 45 46 50 50 49 46 37 36 35 35 46 42 44 43 43 40 44 44 44 42 41 35 42 46 47 46 45 43 41 42 42 40 38 38 39 40 39 38 38
50 50 45 40 44 49 49 46 43 40 41 41 38 44 37 42 41 38 40 39 37 33 38 40 38 38 45 47 47 48 46 42 40 36 35 36 35 36 37 39 39 40 38 37
46 42 39 44 50 46 42 37 38 38 34 40 41 43 38 43 37 36 37 34 34 33 35 36 35 36 40 43 44 44 42 42 41 42 39 40 38 38 40 38 39 39 38 36
45 43 45 43 40 37 35 34 34 35 32 39 38 40 41 37 40 35 35 33 33 31 37 34 33 35 39 41 41 42 43 43 44 43 42 41 42 41 40 38 37 36 36 36
44 41 37 37 34 32 30 28 30 32 36 36 36 35 37 36 37 32 31 30 30 35 33 32 33 33 37 37 39 38 42 44 45 44 44 42 39 39 39 36 37 37 35 35
36 33 31 34 31 31 32 32 33 34 36 36 36 35 35 35 32 31 24 30 31 27 25 24 31 33 35 40 37 37 38 41 40 39 38 38 38 36 37 36 37 35 33 32
32 34 32 32 32 31 32 34 35 36 40 37 35 34 34 31 28 31 30 28 23 27 26 29 32 34 34 35 36 38 38 39 39 38 37 36 35 35 33 34 33 33 31 31
32 32 30 31 31 29 32 33 34 37 40 36 34 31 28 29 29 26 21 22 22 27 28 28 29 33 35 37 37 38 39 39 38 38 36 35 34 33 31 31 30 30 29 29
32 30 34 33 33 31 33 35 35 43 39 33 32 27 25 32 29 22 26 26 28 26 26 28 31 32 35 37 37 37 37 37 37 34 33 32 32 31 28 25 25 26 27 26
MSLP
1004.40 1004.42 1004.11 1003.29 1003.18 1004.09 1005.08 1005.86 1006.40 1006.84 1007.60 1008.35 1008.25 1007.69 1007.32 1007.22 1007.16 1007.49 1007.79 1007.37 1006.81 1006.23 1005.71 1005.19 1003.91 1003.06 1002.41 1002.50 1004.22 1005.20 1005.99 1005.91 1005.21 1004.87 1004.28 1002.99 1002.10 1001.20 1000.40 999.90 999.81 999.58 999.47 1000.74
1003.78 1003.75 1003.13 1003.04 1002.80 1003.59 1004.57 1005.41 1005.66 1006.57 1006.75 1006.83 1006.89 1006.85 1006.68 1006.73 1006.67 1006.67 1006.70 1006.34 1006.04 1005.59 1004.94 1004.22 1002.56 1001.80 1001.92 1002.08 1002.87 1004.26 1005.22 1005.27 1004.92 1004.41 1003.33 1002.67 1002.12 1001.33 1000.61 1000.06 999.84 999.90 999.74 1000.72
1003.81 1003.17 1002.96 1002.61 1001.65 1002.92 1003.71 1004.78 1004.92 1006.04 1006.23 1005.86 1005.96 1006.05 1005.67 1005.58 1005.61 1005.80 1005.66 1005.30 1005.07 1004.67 1003.95 1002.88 1001.41 1000.95 1000.96 1001.52 1002.45 1003.40 1004.00 1003.94 1003.70 1002.80 1001.10 1000.83 1001.06 1001.00 1000.52 1000.52 1000.44 999.93 999.95 1000.40
1004.21 1003.60 1003.14 1002.41 1001.24 1002.36 1003.09 1003.84 1003.63 1004.14 1004.89 1005.18 1005.12 1005.23 1004.50 1004.39 1004.82 1004.89 1004.69 1004.73 1004.09 1003.33 1002.33 1001.60 1000.62 1000.35 1000.73 1001.07 1001.65 1002.98 1003.97 1002.72 1002.16 1001.30 1000.20 1000.09 1000.33 1000.67 1000.53 1000.40 1000.48 1000.28 999.92 999.88
1003.87 1003.36 1002.40 1001.69 1001.21 1002.22 1002.93 1003.16 1003.20 1003.48 1003.12 1003.54 1004.07 1004.19 1003.50 1003.44 1003.51 1003.89 1003.35 1003.07 1002.74 1002.14 1001.03 999.93 999.78 999.81 1000.29 1000.75 1001.75 1002.53 1003.06 1002.26 1000.87 1000.32 999.97 999.71 1000.03 1000.09 1000.04 1000.09 1000.16 1000.02 999.95 999.85
1003.58 1002.80 1001.89 1001.89 1001.61 1001.90 1002.22 1002.50 1002.78 1003.04 1002.57 1002.56 1002.77 1002.30 1002.03 1001.83 1002.14 1001.81 1001.95 1002.07 1001.79 1001.38 999.92 998.88 999.06 999.34 999.72 1000.01 1000.95 1001.83 1002.91 1002.38 1001.10 1000.36 999.89 999.71 999.60 999.17 999.41 999.72 999.86 999.72 999.73 999.68
1003.48 1002.82 1002.13 1001.38 1000.72 1001.35 1001.60 1001.97 1002.57 1003.00 1002.61 1002.21 1001.38 1000.56 1000.49 1001.04 1001.36 1001.26 1000.92 1001.34 1001.09 999.97 999.31 998.74 999.20 999.36 999.96 1000.17 1000.83 1001.49 1002.04 1002.24 1001.87 1001.24 1000.44 1000.01 998.95 998.30 998.28 998.56 998.82 999.11 999.52 999.77
1003.20 1002.57 1002.32 1001.90 1001.64 1001.05 1001.42 1001.81 1002.31 1002.41 1002.24 1001.59 1001.18 1000.02 1000.30 1000.72 1001.02 1000.74 1000.43 1000.62 1000.16 999.35 999.26 999.77 1000.88 1000.65 1000.80 1001.20 1001.60 1001.49 1001.78 1002.20 1002.17 1002.02 1001.16 999.86 999.01 998.61 998.37 998.22 998.32 998.42 999.12 999.81
1002.90 1002.40 1001.72 1001.29 1000.01 1000.51 1001.37 1001.65 1001.91 1002.42 1002.30 1001.39 1000.65 1000.32 1000.55 1000.96 1000.88 1000.89 1000.88 1000.69 1000.40 1000.05 1000.22 1000.83 1001.31 1001.11 1001.35 1001.87 1002.15 1002.04 1001.98 1002.13 1002.63 1002.66 1001.87 1000.63 999.70 998.97 998.45 998.40 998.90 998.94 998.72 999.83
1002.26 1001.96 1001.52 1000.90 1000.68 1000.29 1000.92 1001.40 1001.73 1002.27 1002.06 1001.04 1000.79 1000.54 1000.69 1000.90 1000.73 1000.92 1001.04 1000.72 1000.48 1000.18 1000.73 1000.52 1000.72 1001.15 1001.51 1001.83 1002.14 1002.47 1002.59 1002.92 1003.05 1003.05 1002.49 1000.90 999.88 999.42 999.17 999.73 1000.23 999.57 999.20 999.74
1002.01 1001.85 1001.29 1000.58 1000.07 999.81 1000.49 1001.24 1001.62 1001.87 1001.68 1000.99 1000.72 1000.70 1000.73 1000.90 1000.78 1000.76 1001.26 1001.20 1000.92 1000.82 1000.35 1000.54 1000.60 1000.95 1001.42 1001.52 1001.71 1001.89 1002.39 1002.98 1002.99 1002.94 1002.73 1001.75 1000.01 1000.15 1000.32 1000.40 1000.32 1000.35 1000.59 1001.21
1001.99 1001.34 1000.72 1000.17 999.70 999.59 1000.35 1001.01 1001.48 1001.74 1001.77 1001.05 1000.86 1000.58 1000.42 1000.55 1000.62 1000.85 1001.31 1001.23 1000.64 1000.32 1000.35 1000.67 1000.40 1000.26 1000.48 1000.42 1000.97 1001.11 1001.69 1001.51 1001.90 1002.05 1001.41 1000.69 1000.42 1000.72 1000.69 1000.67 1001.01 1001.42 1002.02 1002.91
1001.50 1000.79 1000.28 999.78 999.59 999.43 1000.16 1000.73 1001.22 1001.58 1001.50 1000.86 1000.75 1000.20 1000.15 1000.43 1000.54 1000.66 1001.09 1001.24 1000.92 1000.68 1000.70 1000.63 1000.60 1000.40 1000.22 1000.13 999.96 1000.23 1000.28 1000.44 1000.73 1001.24 1000.85 1000.81 1000.96 1001.22 1001.20 1001.28 1001.76 1002.40 1003.01 1003.82
1000.86 1000.20 999.72 999.49 999.36 999.24 1000.00 1000.44 1000.85 1000.89 1000.80 1000.54 1000.29 1000.02 1000.09 1000.19 1000.49 1000.54 1000.86 1000.84 1000.92 1000.96 1000.90 1000.89 1000.88 1000.91 1000.40 1000.43 999.96 999.68 999.76 1000.23 1000.29 1000.68 1000.88 1001.17 1001.25 1001.51 1001.73 1002.16 1002.62 1003.32 1004.04 1004.82
1000.34 999.65 999.36 999.26 999.07 999.06 999.89 1000.19 1000.44 1000.34 1000.75 1000.19 1000.21 1000.03 1000.22 1000.04 1000.11 1000.46 1000.68 1000.97 1000.88 1000.98 1001.00 1001.27 1001.34 1001.25 1001.15 1000.80 1000.32 999.81 999.51 999.37 999.82 999.75 999.73 1000.16 1000.65 1001.48 1002.10 1002.88 1003.68 1004.42 1004.95 1005.95
999.62 999.20 998.85 998.67 998.62 999.10 999.61 1000.20 1000.12 1000.13 1000.37 1000.45 1000.48 1000.53 1000.38 1000.11 1000.03 1000.20 1000.29 1000.53 1000.66 1000.63 1000.64 1000.97 1000.92 1000.88 1000.96 1000.84 1000.10 998.77 998.74 998.87 999.04 999.53 999.89 1000.16 1001.10 1001.99 1002.77 1003.70 1004.60 1005.33 1005.88 1006.56
998.99 998.40 998.19 998.27 998.22 998.85 999.37 999.72 999.57 999.63 1000.29 1000.60 1000.97 1000.89 1000.86 1000.71 1000.44 1000.57 1000.66 1000.63 1000.86 1000.93 1000.92 1001.03 1000.97 1001.00 1000.88 1000.48 999.75 998.84 999.08 999.55 999.88 1000.06 1000.57 1001.96 1002.35 1003.06 1003.75 1004.54 1005.35 1005.95 1006.72 1007.43
997.65 997.44 997.65 997.58 998.23 999.05 999.65 999.70 999.52 999.68 1000.12 1000.62 1001.10 1001.29 1001.28 1001.08 1000.90 1001.18 1001.17 1001.02 1001.06 1001.34 1001.38 1001.38 1001.29 1001.34 1001.01 1000.45 999.27 999.14 999.49 1000.15 1000.75 1001.12 1001.13 1001.75 1002.80 1003.84 1004.83 1005.52 1006.17 1007.02 1007.92 1008.63
996.38 996.76 996.99 997.89 998.37 998.87 999.30 999.53 999.84 999.92 1000.28 1000.64 1001.12 1001.15 1001.45 1001.36 1001.59 1001.63 1001.65 1001.58 1001.71 1001.96 1001.73 1001.86 1001.82 1001.22 1000.74 999.64 999.51 999.67 1000.16 1000.60 1001.54 1002.26 1002.57 1003.17 1003.98 1005.13 1005.79 1006.36 1007.10 1007.71 1008.68 1009.38
995.62 996.19 996.95 997.86 998.15 998.39 999.04 1000.03 1000.04 1000.27 1000.42 1000.71 1000.82 1000.74 1001.55 1001.78 1001.96 1002.42 1002.55 1002.52 1002.61 1002.70 1002.67 1002.48 1002.21 1001.35 1000.07 999.79 999.70 999.75 1000.33 1001.23 1001.98 1003.10 1004.27 1004.76 1005.45 1005.97 1006.66 1007.08 1007.56 1008.21 1009.11 1010.00
994.96 996.21 997.36 997.98 998.20 998.64 999.44 1000.04 1000.24 1000.45 1000.67 1000.59 1000.58 1000.78 1001.45 1002.02 1002.15 1002.73 1003.17 1003.22 1003.26 1003.20 1003.17 1003.00 1002.32 1001.49 1000.72 1000.49 1000.38 1000.36 1000.87 1001.67 1002.39 1002.64 1003.43 1004.28 1005.15 1006.04 1006.71 1007.56 1008.26 1008.94 1009.67 1010.37
995.02 996.42 997.23 998.10 998.55 999.38 999.82 1000.17 1000.54 1000.37 1000.16 1000.26 1000.53 1000.80 1001.22 1002.25 1002.13 1002.73 1003.57 1003.62 1003.75 1003.68 1003.40 1003.45 1002.63 1001.63 1001.49 1001.38 1001.43 1001.48 1001.75 1002.28 1002.83 1003.11 1003.73 1004.72 1005.62 1006.42 1007.22 1008.07 1008.92 1009.61 1010.24 1010.81
995.88 996.53 997.35 997.57 999.41 999.57 999.64 999.76 1000.14 1000.05 999.83 1000.17 1000.47 1001.22 1001.68 1002.34 1002.41 1003.46 1003.86 1004.21 1004.34 1003.97 1003.99 1003.44 1002.52 1002.31 1002.30 1002.30 1002.32 1002.56 1002.67 1002.93 1003.33 1003.99 1004.59 1005.32 1006.33 1007.09 1007.78 1008.74 1009.46 1010.11 1010.81 1011.43
996.69 996.99 997.69 997.95 998.91 998.60 998.29 998.38 998.48 998.67 999.19 999.92 1000.57 1001.33 1001.77 1002.30 1002.84 1003.73 1004.36 1004.88 1004.76 1004.89 1004.65 1003.34 1002.76 1002.89 1003.02 1003.15 1003.33 1003.47 1003.79 1004.01 1004.54 1005.08 1005.66 1006.29 1007.13 1008.14 1008.83 1009.44 1010.10 1010.75 1011.48 1012.06
997.54 997.39 997.61 998.04 998.25 998.44 998.49 998.37 998.57 998.83 999.14 999.70 1000.59 1001.50 1002.20 1002.85 1003.67 1004.16 1005.08 1005.39 1005.15 1004.53 1003.58 1003.35 1003.24 1003.41 1003.67 1003.95 1004.14 1004.37 1004.69 1005.01 1005.44 1005.94 1006.57 1007.31 1008.17 1009.00 1009.96 1010.62 1011.10 1011.54 1012.13 1012.67
998.28 998.24 998.37 998.58 998.73 999.26 999.17 999.05 998.96 998.79 999.28 999.70 1000.39 1001.72 1002.75 1003.25 1003.60 1004.29 1004.31 1004.74 1004.05 1003.51 1003.40 1003.66 1003.62 1003.95 1004.22 1004.51 1004.82 1005.12 1005.45 1005.86 1006.37 1006.97 1007.53 1008.44 1009.26 1010.05 1011.02 1011.67 1012.08 1012.46 1012.92 1013.57
998.69 999.02 998.89 998.93 998.95 999.06 999.26 999.03 999.04 998.96 999.30 1000.00 1000.60 1001.71 1002.59 1003.02 1003.60 1003.94 1003.63 1003.48 1003.33 1003.40 1003.82 1003.93 1004.12 1004.30 1004.61 1005.03 1005.51 1005.91 1006.31 1006.85 1007.43 1008.14 1008.96 1009.67 1010.35 1010.94 1011.57 1012.45 1013.23 1013.53 1014.09 1014.58
Wind_Speed
15 13 21 18 16 20 11 4 3 10 13 7 4 7 6 7 6 12 13 6 9 10 13 13 17 17 8 15 17 9 7 4 4 2 10 12 3 2 4 1 2 0 3 2
16 15 17 20 16 23 6 6 3 8 8 7 7 5 11 12 7 10 9 12 12 12 10 8 19 16 11 8 9 14 10 4 2 2 2 4 4 6 6 3 4 3 3 4
24 19 17 19 16 21 5 3 5 4 4 3 7 12 13 15 10 17 11 6 10 11 14 15 11 13 10 11 12 13 4 3 5 3 2 6 10 12 7 4 1 3 3 6
21 23 24 28 17 21 5 3 4 6 7 9 10 7 5 6 5 11 11 6 15 13 9 17 13 10 9 6 13 11 5 6 6 14 14 13 14 11 7 9 8 4 3 7
21 23 22 31 23 20 3 5 4 3 3 14 16 16 8 17 15 8 8 10 17 17 14 9 10 11 10 7 11 8 2 6 7 5 7 8 12 11 10 10 11 8 8 7
20 25 24 22 15 13 2 1 2 1 2 7 10 11 15 11 5 12 15 17 11 18 20 8 3 14 9 10 12 10 5 4 3 2 6 3 3 9 13 11 9 8 11 8
20 22 23 21 13 18 3 3 3 3 4 5 9 14 9 8 5 14 12 14 13 13 15 4 4 2 6 6 13 13 10 5 4 2 1 1 3 3 7 13 9 15 12 7
22 21 20 21 25 23 2 2 3 3 2 4 15 10 2 2 3 2 5 11 8 2 6 5 5 3 4 4 5 5 7 6 1 2 3 5 3 3 4 7 12 8 9 10
24 21 21 23 11 20 3 2 3 2 1 3 7 3 1 1 2 2 1 1 4 3 3 3 5 5 4 4 2 4 2 7 1 4 2 4 1 2 5 3 5 7 9 9
25 21 21 20 16 19 5 2 4 2 2 3 5 2 2 2 1 3 2 2 2 3 5 4 3 4 4 6 7 4 4 1 6 7 2 6 2 2 4 4 4 7 7 12
25 21 20 19 20 17 7 2 5 3 3 2 2 4 2 3 2 2 2 3 2 2 4 2 2 3 5 4 6 7 6 6 4 3 2 7 4 3 3 2 3 4 8 10
24 21 20 19 21 16 11 2 3 3 2 1 1 4 2 3 1 4 0 2 2 0 4 1 1 2 4 6 4 10 6 6 6 7 6 2 3 4 2 2 3 5 11 12
24 22 19 18 19 15 11 3 3 2 1 3 2 4 5 4 2 1 3 1 2 2 1 2 1 2 1 4 4 5 4 12 3 5 5 4 4 3 2 3 7 9 10 12
26 23 21 19 18 16 10 3 3 1 3 3 3 2 2 4 5 5 3 1 2 3 2 3 3 1 3 3 1 3 3 9 6 1 2 3 3 5 6 9 10 11 9 10
25 23 21 18 17 16 8 2 4 1 2 2 2 2 1 2 5 6 8 4 4 3 3 2 2 1 1 2 3 2 4 6 6 5 9 5 5 9 10 12 10 9 15 11
25 22 19 15 12 16 3 3 3 6 1 1 2 2 1 1 5 5 4 2 1 1 1 3 2 1 1 4 4 3 6 4 3 3 5 6 11 10 9 12 11 9 11 11
23 21 17 15 16 6 2 2 1 8 4 1 2 1 1 4 2 2 2 2 1 1 1 1 2 2 2 1 3 4 7 7 6 10 15 9 5 7 11 11 10 12 10 9
23 17 14 15 15 9 1 0 6 5 4 2 3 1 1 2 1 2 2 1 2 3 1 1 0 1 1 4 5 5 8 9 6 6 4 8 13 14 11 10 12 12 11 9
14 13 18 5 2 3 2 8 5 2 3 4 2 4 3 1 2 2 2 2 2 2 1 1 2 2 4 5 4 7 9 6 10 8 9 11 12 11 9 9 9 13 9 8
16 10 3 3 3 20 11 2 2 3 2 2 2 1 2 1 1 2 1 2 1 1 0 3 2 4 4 1 2 5 9 14 14 12 7 9 9 9 7 7 8 9 7 7
2 3 2 2 11 3 2 2 2 2 1 3 3 3 4 1 3 3 1 1 1 1 1 2 2 4 2 6 5 4 10 11 7 5 9 7 12 12 12 9 9 9 8 7
7 6 5 3 3 4 4 2 1 4 5 2 4 3 4 2 1 4 1 3 1 2 1 1 4 2 2 3 4 6 8 8 8 10 13 14 13 10 11 10 9 8 8 8
4 3 3 4 0 4 9 10 4 4 6 4 4 4 3 2 3 4 3 3 2 1 2 4 4 2 3 4 5 7 7 9 13 14 14 15 13 11 12 11 8 9 8 7
3 3 6 5 6 6 5 5 5 3 6 9 5 3 3 2 4 3 5 1 2 2 3 7 1 4 5 5 5 7 7 11 13 13 14 15 15 12 9 8 8 9 8 7
2 1 3 2 3 4 3 3 4 2 8 7 5 4 4 2 4 3 4 3 4 6 6 2 3 6 6 6 7 9 9 10 12 11 13 13 12 12 10 8 7 8 8 7
2 3 3 2 3 1 1 1 4 1 8 3 4 5 4 2 4 4 7 7 7 4 3 2 4 6 6 8 8 8 8 10 11 10 11 11 10 11 10 8 8 8 8 7
3 3 3 2 2 3 2 1 1 6 6 3 4 5 4 4 3 3 5 6 2 3 2 2 5 7 9 10 9 8 9 11 11 10 10 9 9 10 10 11 5 8 8 7
Wind_Direction
309 299 309 327 195 153 141 139 159 156 150 181 192 218 191 255 200 205 234 248 217 205 187 219 226 216 204 192 136 177 165 281 317 304 264 218 244 265 249 31 90 46 122 137
310 310 301 326 206 156 129 160 126 161 167 200 211 222 239 233 204 201 203 214 213 205 205 237 220 214 215 191 138 161 175 220 199 293 223 105 186 252 246 337 23 251 62 175
335 323 305 300 220 165 114 172 145 148 208 235 222 223 244 238 211 232 211 228 206 209 224 231 208 231 190 161 173 173 129 202 256 277 159 124 149 214 206 231 127 318 106 133
339 324 319 311 207 166 112 194 167 158 180 216 225 240 267 214 215 217 213 226 215 206 222 221 214 193 148 174 186 172 192 256 232 235 141 156 166 181 204 206 229 200 237 143
339 321 322 322 174 164 133 142 152 174 206 201 209 228 241 255 252 215 198 216 201 224 236 187 184 184 167 181 180 181 327 292 317 134 145 162 175 188 204 215 215 252 284 298
344 329 327 312 238 162 137 81 80 287 279 221 206 219 223 228 211 206 219 200 227 215 234 197 242 178 187 170 180 169 223 255 305 34 144 161 284 202 199 214 228 221 225 236
337 330 326 321 198 190 134 176 107 146 238 263 262 257 220 223 276 254 201 193 213 218 235 253 48 62 197 215 168 187 192 231 289 11 130 163 241 43 225 212 209 214 231 230
333 334 327 310 293 204 144 178 133 161 244 228 265 273 154 37 256 249 202 174 201 113 53 59 53 26 10 78 53 210 195 194 310 147 243 303 292 206 174 173 242 217 203 210
331 334 321 310 266 199 137 172 107 126 112 221 311 4 129 347 268 142 56 208 275 279 89 129 194 166 117 177 27 1 39 200 156 350 190 208 57 15 333 359 284 356 209 169
333 332 314 316 310 194 160 146 136 150 191 257 318 294 134 195 278 80 273 125 101 336 168 176 135 132 123 159 153 153 106 149 222 229 302 308 94 135 299 127 246 332 335 136
332 324 311 310 319 191 173 124 177 173 201 243 344 161 129 252 237 143 165 123 218 132 193 118 168 134 196 141 170 165 155 154 171 132 135 269 132 46 172 208 355 355 58 104
324 320 317 310 321 184 173 144 158 175 264 10 359 297 286 263 245 128 264 338 206 116 92 147 147 177 146 171 182 170 172 172 178 183 206 154 74 103 342 94 113 64 98 105
322 321 313 311 315 184 178 118 134 119 261 257 188 215 164 165 189 150 130 235 257 73 353 108 103 150 309 161 204 130 194 198 197 135 197 181 164 95 337 105 108 95 102 112
321 317 310 303 308 190 163 142 171 213 203 237 129 112 148 119 165 161 116 85 134 76 347 66 55 355 47 331 255 134 183 147 176 149 130 72 280 167 137 95 93 91 84 104
316 314 302 295 297 188 171 115 191 187 300 11 89 101 86 239 177 183 160 184 198 177 95 89 202 151 118 326 342 225 194 182 166 212 176 178 171 153 126 117 115 109 115 104
311 301 286 273 258 162 124 194 194 192 171 270 124 24 54 264 157 143 128 107 42 331 176 173 164 72 163 179 204 226 157 93 53 155 99 97 111 110 117 120 122 114 109 110
300 291 277 267 162 144 170 195 116 154 125 182 111 172 34 334 334 39 114 153 143 331 182 225 149 184 182 260 215 165 135 113 92 103 102 78 121 138 117 117 110 108 95 87
293 270 245 159 119 106 119 29 120 101 101 67 124 103 170 341 146 107 321 152 169 19 72 267 23 110 240 252 234 134 119 115 110 52 18 120 110 101 97 99 108 100 99 102
256 220 135 104 129 141 146 123 114 46 109 122 119 140 159 355 51 25 37 336 100 346 235 132 325 193 225 236 227 156 153 150 130 71 67 93 103 111 111 118 109 112 113 106
179 136 123 146 185 113 121 87 106 33 12 97 132 104 118 60 126 66 110 6 95 134 45 325 204 257 304 297 6 174 143 131 126 116 110 113 115 122 121 119 112 113 114 118
55 104 97 74 125 86 68 118 181 150 88 167 161 149 127 272 130 130 9 150 24 138 184 241 250 253 226 357 48 77 119 139 157 99 111 114 134 140 127 106 103 109 114 118
125 119 106 100 83 51 99 179 100 199 191 118 140 126 110 167 141 102 327 109 80 208 113 273 252 230 32 28 82 92 118 136 127 122 121 125 126 120 114 113 110 104 109 110
71 83 102 113 3 149 181 181 194 179 165 171 151 119 132 133 74 71 95 106 160 32 199 243 242 128 81 62 77 76 84 99 102 102 104 103 102 98 113 113 108 110 106 110
69 134 132 166 181 215 186 169 158 169 127 136 116 105 109 124 68 140 96 72 103 140 230 236 185 149 119 129 94 100 101 104 107 110 107 103 103 98 91 94 105 111 106 105
97 257 140 156 82 36 23 54 101 101 144 128 112 73 87 62 92 84 119 145 225 213 227 190 143 119 116 116 108 111 113 114 113 109 108 103 102 99 88 75 87 96 98 94
59 55 93 61 84 75 94 35 125 154 149 85 68 115 102 126 136 150 205 156 219 228 158 171 120 124 122 110 105 102 104 106 103 99 97 100 102 105 101 82 72 77 87 90
36 55 17 43 39 108 124 137 144 169 151 129 129 115 168 114 157 219 192 208 187 153 117 101 121 134 123 115 106 100 99 99 95 89 86 94 102 104 95 87 62 79 84 88